Weather History for K21D - September, 2013

Change the Weather History Date:

Sunday, September 22, 2013

  Actual Average (KSTP) Record (KSTP)
Temperature  
Mean Temperature 54 °F -  
Max Temperature 69 °F 66 °F 82 °F (2004)
Min Temperature 39 °F 46 °F 39 °F (2012)
Degree Days  
Heating Degree Days 11    
Growing Degree Days 4 (Base 50)    
Moisture  
Dew Point 48 °F    
Average Humidity 75    
Maximum Humidity 100    
Minimum Humidity 52    
Precipitation  
Precipitation 0.00 in - - ()
Sea Level Pressure  
Sea Level Pressure 29.96 in    
Wind  
Wind Speed 5 mph (SE)    
Max Wind Speed 16 mph    
Max Gust Speed 22 mph    
Visibility 10 miles    
Events      
Averages and records for this station are not official NWS values.
T = Trace of Precipitation, MM = Missing Value Source: NWS Daily Summary

Daily Weather History Graph

Daily Weather History Graph

Search for Another Location

Airport or City:

Trip Planner

Search our weather history database for the weather conditions in past years. The results will help you decide how hot, cold, wet, or windy it might be!

Date:

Astronomy

Sep. 22, 2013 Rise Set
Actual Time 6:58 AM CDT 7:08 PM CDT
Civil Twilight 6:29 AM CDT 7:37 PM CDT
Nautical Twilight 5:55 AM CDT 8:11 PM CDT
Astronomical Twilight 5:19 AM CDT 8:47 PM CDT
Moon 8:47 PM CDT (9/22) 10:30 AM CDT (9/22)
Length of Visible Light 13h 08m
Length of Day
12h 09m
Waning Gibbous, 88% of the Moon is Illuminated
Sep 22
Waning Gibbous
Sep 26
Last Quarter
Oct 4
New
Oct 11
First Quarter
Oct 18
Full

Hourly Weather History & Observations

Time (CDT) Temp. Windchill Dew Point Humidity Pressure Visibility Wind Dir Wind Speed Gust Speed Precip Events Conditions
12:12 AM 42.8 °F - 42.8 °F 100% 29.98 in 3.0 mi Calm Calm - N/A   Clear
12:32 AM 42.8 °F - 42.8 °F 100% 29.98 in 10.0 mi Calm Calm - N/A   Clear
12:52 AM 42.8 °F - 42.8 °F 100% 29.98 in 2.5 mi Calm Calm - N/A   Clear
1:12 AM 41.0 °F - 41.0 °F 100% 29.98 in 10.0 mi Calm Calm - N/A   Clear
1:32 AM 41.0 °F - 41.0 °F 100% 29.99 in 10.0 mi Calm Calm - N/A   Clear
1:52 AM 41.0 °F - 41.0 °F 100% 29.99 in 10.0 mi Calm Calm - N/A   Clear
2:12 AM 41.0 °F - 41.0 °F 100% 29.98 in 10.0 mi Calm Calm - N/A   Clear
2:32 AM 44.6 °F - 42.8 °F 93% 29.98 in 10.0 mi Calm Calm - N/A   Clear
2:52 AM 41.0 °F - 39.2 °F 93% 29.98 in 10.0 mi Calm Calm - N/A   Clear
3:12 AM 41.0 °F - 39.2 °F 93% 29.98 in 10.0 mi Calm Calm - N/A   Clear
3:32 AM 41.0 °F - 41.0 °F 100% 29.98 in 10.0 mi Calm Calm - N/A   Clear
3:52 AM 41.0 °F - 39.2 °F 93% 29.98 in 10.0 mi Calm Calm - N/A   Clear
4:11 AM 41.0 °F - 41.0 °F 100% 29.99 in 10.0 mi Calm Calm - N/A   Clear
4:32 AM 39.2 °F 37.0 °F 37.4 °F 93% 29.98 in 10.0 mi East 3.5 mph - N/A   Clear
4:52 AM 44.6 °F 42.2 °F 42.8 °F 93% 29.99 in 10.0 mi ESE 4.6 mph - N/A   Clear
5:11 AM 46.4 °F 44.3 °F 42.8 °F 87% 29.99 in 10.0 mi ESE 4.6 mph - N/A   Clear
5:32 AM 44.6 °F 41.4 °F 42.8 °F 93% 29.99 in 10.0 mi ESE 5.8 mph - N/A   Clear
5:52 AM 44.6 °F 43.1 °F 42.8 °F 93% 30.00 in 10.0 mi ESE 3.5 mph - N/A   Clear
6:12 AM 44.6 °F 43.1 °F 42.8 °F 93% 30.00 in 10.0 mi ESE 3.5 mph - N/A   Clear
6:32 AM 44.6 °F 41.4 °F 42.8 °F 93% 30.00 in 10.0 mi ESE 5.8 mph - N/A   Clear
6:51 AM 44.6 °F 41.4 °F 42.8 °F 93% 30.01 in 10.0 mi East 5.8 mph - N/A   Clear
7:12 AM 44.6 °F 41.4 °F 42.8 °F 93% 30.01 in 10.0 mi East 5.8 mph - N/A   Clear
7:32 AM 46.4 °F 42.9 °F 42.8 °F 87% 30.01 in 10.0 mi East 6.9 mph - N/A   Clear
7:51 AM 46.4 °F 42.4 °F 42.8 °F 87% 30.01 in 10.0 mi East 8.1 mph - N/A   Clear
8:12 AM 48.2 °F - 42.8 °F 82% 30.01 in 10.0 mi ESE 9.2 mph - N/A   Clear
8:32 AM 48.2 °F - 44.6 °F 87% 30.01 in 10.0 mi SE 4.6 mph - N/A   Clear
8:51 AM 50.0 °F - 44.6 °F 82% 30.00 in 10.0 mi ESE 6.9 mph - N/A   Clear
9:12 AM 51.8 °F - 44.6 °F 76% 30.01 in 10.0 mi ESE 6.9 mph - N/A   Clear
9:32 AM 53.6 °F - 46.4 °F 77% 30.00 in 10.0 mi ESE 8.1 mph - N/A   Clear
9:52 AM 55.4 °F - 46.4 °F 72% 30.00 in 10.0 mi SE 9.2 mph - N/A   Clear
10:12 AM 55.4 °F - 46.4 °F 72% 30.00 in 10.0 mi SE 8.1 mph 16.1 mph N/A   Clear
10:31 AM 57.2 °F - 46.4 °F 67% 30.00 in 10.0 mi SE 9.2 mph - N/A   Clear
10:52 AM 59.0 °F - 48.2 °F 67% 30.00 in 10.0 mi SSE 8.1 mph - N/A   Clear
11:12 AM 60.8 °F - 50.0 °F 68% 30.00 in 10.0 mi SE 10.4 mph - N/A   Clear
11:31 AM 60.8 °F - 50.0 °F 68% 29.99 in 10.0 mi SSE 11.5 mph 18.4 mph N/A   Clear
11:52 AM 62.6 °F - 50.0 °F 63% 29.99 in 10.0 mi SE 12.7 mph 17.3 mph N/A   Clear
12:12 PM 62.6 °F - 50.0 °F 63% 29.98 in 10.0 mi SE 11.5 mph 18.4 mph N/A   Clear
12:32 PM 64.4 °F - 50.0 °F 59% 29.97 in 10.0 mi SE 11.5 mph 19.6 mph N/A   Clear
12:52 PM 66.2 °F - 50.0 °F 56% 29.97 in 10.0 mi SE 10.4 mph 17.3 mph N/A   Clear
1:12 PM 66.2 °F - 50.0 °F 56% 29.96 in 10.0 mi SE 12.7 mph - N/A   Clear
1:32 PM 68.0 °F - 50.0 °F 52% 29.95 in 10.0 mi SE 10.4 mph 17.3 mph N/A   Clear
1:52 PM 68.0 °F - 51.8 °F 56% 29.94 in 10.0 mi SE 11.5 mph 17.3 mph N/A   Clear
2:11 PM 68.0 °F - 51.8 °F 56% 29.93 in 10.0 mi SE 13.8 mph 18.4 mph N/A   Clear
2:32 PM 69.8 °F - 51.8 °F 53% 29.92 in 10.0 mi SE 11.5 mph 18.4 mph N/A   Clear
2:52 PM 69.8 °F - 51.8 °F 53% 29.92 in 10.0 mi SE 13.8 mph 18.4 mph N/A   Clear
3:11 PM 69.8 °F - 51.8 °F 53% 29.92 in 10.0 mi SE 13.8 mph 18.4 mph N/A   Clear
3:32 PM 69.8 °F - 51.8 °F 53% 29.91 in 10.0 mi SSE 16.1 mph 19.6 mph N/A   Clear
3:52 PM 69.8 °F - 51.8 °F 53% 29.91 in 10.0 mi SSE 13.8 mph 21.9 mph N/A   Clear
4:11 PM 69.8 °F - 51.8 °F 53% 29.91 in 10.0 mi SE 10.4 mph - N/A   Clear
4:32 PM 69.8 °F - 51.8 °F 53% 29.90 in 10.0 mi SE 11.5 mph 18.4 mph N/A   Clear
4:52 PM 69.8 °F - 53.6 °F 56% 29.90 in 10.0 mi SE 13.8 mph 18.4 mph N/A   Clear
5:11 PM 69.8 °F - 53.6 °F 56% 29.90 in 10.0 mi SE 11.5 mph 18.4 mph N/A   Clear
5:32 PM 69.8 °F - 53.6 °F 56% 29.90 in 10.0 mi SE 10.4 mph 18.4 mph N/A   Clear
5:52 PM 68.0 °F - 53.6 °F 60% 29.90 in 10.0 mi SE 9.2 mph 16.1 mph N/A   Clear
6:11 PM 68.0 °F - 53.6 °F 60% 29.90 in 10.0 mi SE 8.1 mph 17.3 mph N/A   Clear
6:32 PM 66.2 °F - 53.6 °F 64% 29.90 in 10.0 mi ESE 9.2 mph 16.1 mph N/A   Clear
6:52 PM 64.4 °F - 53.6 °F 68% 29.90 in 10.0 mi ESE 8.1 mph - N/A   Clear
7:12 PM 64.4 °F - 51.8 °F 64% 29.90 in 10.0 mi SE 8.1 mph - N/A   Clear
7:32 PM 62.6 °F - 51.8 °F 68% 29.91 in 10.0 mi SE 8.1 mph - N/A   Clear
7:52 PM 62.6 °F - 51.8 °F 68% 29.91 in 10.0 mi ESE 8.1 mph - N/A   Clear
8:12 PM 62.6 °F - 51.8 °F 68% 29.92 in 10.0 mi SE 9.2 mph - N/A   Clear
8:32 PM 62.6 °F - 51.8 °F 68% 29.92 in 10.0 mi SE 11.5 mph - N/A   Clear
8:52 PM 60.8 °F - 51.8 °F 72% 29.92 in 10.0 mi SE 12.7 mph 18.4 mph N/A   Clear
9:12 PM 60.8 °F - 51.8 °F 72% 29.92 in 10.0 mi SE 9.2 mph 17.3 mph N/A   Clear
9:32 PM 60.8 °F - 51.8 °F 72% 29.92 in 10.0 mi SE 10.4 mph - N/A   Clear
9:51 PM 60.8 °F - 51.8 °F 72% 29.92 in 10.0 mi SE 10.4 mph - N/A   Clear
10:12 PM 60.8 °F - 51.8 °F 72% 29.92 in 10.0 mi SE 11.5 mph 17.3 mph N/A   Clear
10:32 PM 60.8 °F - 51.8 °F 72% 29.92 in 10.0 mi SE 11.5 mph - N/A   Clear
10:52 PM 60.8 °F - 51.8 °F 72% 29.92 in 10.0 mi SE 13.8 mph 18.4 mph N/A   Clear
11:12 PM 59.0 °F - 51.8 °F 77% 29.92 in 10.0 mi SE 11.5 mph - N/A   Clear
11:32 PM 59.0 °F - 51.8 °F 77% 29.92 in 10.0 mi SE 9.2 mph - N/A   Clear
11:52 PM 59.0 °F - 51.8 °F 77% 29.92 in 10.0 mi SE 11.5 mph - N/A   Clear